Weather History for Niagara Falls, NY

Change the Weather History Date:

Wednesday, September 11, 2013

  Actual Average Record
Temperature  
Mean Temperature 80 °F -  
Max Temperature 86 °F 73 °F 86 °F (2013)
Min Temperature 71 °F 54 °F 44 °F (2008)
Cooling Degree Days 14    
Growing Degree Days 30 (Base 50)    
Moisture  
Dew Point 69 °F    
Average Humidity 74    
Maximum Humidity 87    
Minimum Humidity 59    
Precipitation  
Precipitation 0.04 in - - ()
Sea Level Pressure  
Sea Level Pressure 29.96 in    
Wind  
Wind Speed 12 mph (SW)    
Max Wind Speed 23 mph    
Max Gust Speed 31 mph    
Visibility 8 miles    
Events Rain , Thunderstorm    
Averages and records for this station are not official NWS values.
T = Trace of Precipitation, MM = Missing Value Source: NWS Daily Summary

Daily Weather History Graph

Daily Weather History Graph

Search for Another Location

Airport:

Trip Planner

Search our weather history database for the weather conditions in past years. The results will help you decide how hot, cold, wet, or windy it might be!

Date:

Astronomy

Sep. 11, 2013 Rise Set
Actual Time 6:51 AM EDT 7:32 PM EDT
Civil Twilight 6:22 AM EDT 8:01 PM EDT
Nautical Twilight 5:48 AM EDT 8:35 PM EDT
Astronomical Twilight 5:13 AM EDT 9:10 PM EDT
Moon 1:27 PM EDT (9/11) 11:16 PM EDT (9/11)
Length of Visible Light 13h 38m
Length of Day
12h 41m
Waxing Crescent, 38% of the Moon is Illuminated
Sep 11
Waxing Crescent
Sep 12
First Quarter
Sep 19
Full
Sep 26
Last Quarter
Oct 4
New

Hourly Weather History & Observations

Time (EDT) Temp. Heat Index Dew Point Humidity Pressure Visibility Wind Dir Wind Speed Gust Speed Precip Events Conditions
12:53 AM 75.0 °F - 66.9 °F 76% 29.99 in 9.0 mi SW 8.1 mph - N/A   Clear
1:53 AM 75.0 °F - 70.0 °F 84% 30.00 in 8.0 mi SSW 9.2 mph - N/A   Clear
2:53 AM 75.9 °F - 71.1 °F 85% 29.99 in 6.0 mi SW 10.4 mph - N/A   Haze
3:53 AM 75.9 °F - 71.1 °F 85% 29.98 in 6.0 mi SSW 10.4 mph - N/A   Haze
4:53 AM 77.0 °F - 71.1 °F 82% 29.98 in 6.0 mi SW 15.0 mph 21.9 mph N/A   Haze
5:53 AM 75.9 °F - 70.0 °F 82% 30.00 in 6.0 mi SW 12.7 mph - N/A   Haze
6:53 AM 75.0 °F - 70.0 °F 84% 30.00 in 6.0 mi SSW 13.8 mph - N/A   Haze
7:01 AM 75.2 °F - 69.8 °F 83% 30.02 in 5.0 mi SW 12.7 mph - N/A   Haze
7:53 AM 75.9 °F - 70.0 °F 82% 30.01 in 6.0 mi SW 16.1 mph - N/A   Haze
9:53 AM 81.0 °F 84.9 °F 71.1 °F 72% 30.02 in 7.0 mi SW 12.7 mph - N/A   Scattered Clouds
10:53 AM 82.0 °F 85.9 °F 70.0 °F 67% 30.00 in 7.0 mi SW 18.4 mph 24.2 mph N/A   Scattered Clouds
11:53 AM 82.9 °F 87.0 °F 70.0 °F 65% 30.01 in 7.0 mi SW 23.0 mph 27.6 mph N/A   Mostly Cloudy
12:53 PM 81.0 °F 84.4 °F 70.0 °F 69% 29.99 in 7.0 mi SW 16.1 mph 21.9 mph N/A   Mostly Cloudy
1:53 PM 82.0 °F 85.9 °F 70.0 °F 67% 29.98 in 7.0 mi SW 16.1 mph 24.2 mph N/A   Mostly Cloudy
2:53 PM 84.9 °F 88.8 °F 69.1 °F 59% 29.94 in 7.0 mi SW 23.0 mph 31.1 mph N/A   Scattered Clouds
3:53 PM 86.0 °F 90.7 °F 70.0 °F 59% 29.92 in 10.0 mi SW 17.3 mph 27.6 mph N/A   Scattered Clouds
4:53 PM 84.9 °F 88.8 °F 69.1 °F 59% 29.91 in 10.0 mi SW 15.0 mph 24.2 mph N/A   Mostly Cloudy
5:53 PM 82.9 °F 85.8 °F 68.0 °F 60% 29.94 in 10.0 mi West 16.1 mph 23.0 mph N/A   Mostly Cloudy
6:53 PM 78.1 °F - 64.9 °F 64% 29.92 in 10.0 mi SSW 4.6 mph - N/A   Mostly Cloudy
7:53 PM 78.1 °F - 66.9 °F 68% 29.88 in 10.0 mi SSW 8.1 mph - N/A   Scattered Clouds
8:53 PM 77.0 °F - 66.9 °F 71% 29.92 in 10.0 mi South 9.2 mph - N/A   Mostly Cloudy
9:53 PM 75.9 °F - 68.0 °F 76% 29.93 in 10.0 mi SSW 11.5 mph - N/A   Overcast
10:08 PM 75.2 °F - 68.0 °F 78% 29.94 in 10.0 mi SSW 11.5 mph - 0.00 in Rain Light Rain
10:34 PM 75.2 °F - 68.0 °F 78% 29.93 in 10.0 mi WSW 9.2 mph - 0.00 in Thunderstorm Thunderstorm
10:41 PM 75.2 °F - 68.0 °F 78% 29.94 in 10.0 mi WNW 12.7 mph - 0.00 in Rain , Thunderstorm Light Thunderstorms and Rain
10:53 PM 73.9 °F - 69.1 °F 85% 29.92 in 10.0 mi West 8.1 mph - 0.00 in Rain , Thunderstorm Light Thunderstorms and Rain
11:53 PM 71.1 °F - 66.9 °F 87% 29.94 in 10.0 mi West 10.4 mph - 0.04 in Rain , Thunderstorm Light Rain